Regional Weather Roundup
Issued by NWS Columbia, SC

Home | Current Version | Previous Version | Text Only | Print | Product List | Glossary On
Versions: 1 2 3 4 5 6 7 8 9 10 11 12 13 14 15 16 17 18 19 20 21 22 23 24 25 26 27 28 29 30 31 32 33 34 35 36 37 38 39 40 41 42 43 44 45 46 47 48 49 50
000
ASUS42 KCAE 250110
RWRCAE
REGIONAL WEATHER ROUNDUP
NATIONAL WEATHER SERVICE COLUMBIA SC
800 PM EST WED DEC 24 2014

NOTE: "FAIR" INDICATES FEW OR NO CLOUDS BELOW 12,000 FEET WITH NO
SIGNIFICANT WEATHER AND/OR OBSTRUCTIONS TO VISIBILITY.

NOT ALL STATIONS ARE QUALITY CONTROLLED BY THE NATIONAL
WEATHER SERVICE. USE DATA WITH CAUTION...ESPECIALLY
DEWPOINT OBSERVATIONS.

SCZ001>056-GAZ040-063>065-077-250200-
...UPSTATE SOUTH CAROLINA...

CITY           SKY/WX    TMP DP  RH WIND       PRES   REMARKS
ANDERSON       CLOUDY    53  52  96 W13       29.74R
LIBERTY        CLOUDY    53  32  45 SW6       29.71R HAZE
SPARTANBURG    FOG       54 N/A N/A W3        29.69R VSB 1/2
CLEMSON        CLOUDY    54  51  90 VRB6      29.72S
GREENVILLE     CLOUDY    53  52  96 SW9       29.71S
GREENWOOD      CLOUDY    59  58  96 SW9       29.72R
GREER          CLOUDY    53  53 100 SW9       29.69R FOG
ROCK HILL      CLOUDY    63  62  97 S9        29.69R
LAURENS        FOG       54  54 100 SW5       29.71R VSB 1


...CENTRAL SOUTH CAROLINA...

CITY           SKY/WX    TMP DP  RH WIND       PRES   REMARKS
COLUMBIA APT   CLOUDY    67  64  90 S8        29.72S
COLUMBIA OWENS CLOUDY    66  63  90 S8        29.73S
DARLINGTON     CLOUDY    64  61  88 S12       29.73S
FLORENCE       CLOUDY    66  63  90 SW10      29.73F
MCENTIRE ANGB  CLOUDY    65  65 100 S8        29.74R
ORANGEBURG     CLOUDY    65  62  90 SW14      29.74F
SUMTER SHAW    CLOUDY    65  63  94 S10       29.71S
NEWBERRY       CLOUDY    63 N/A N/A S6        29.73S
AIKEN          FAIR      64  64 100 S9        29.76S
BARNWELL       CLOUDY    66  66 100 S8        29.75F
MANNING        FAIR      64 N/A N/A S5        29.74F
CAMDEN         CLOUDY    64  64 100 S7        29.73S
LANCASTER      LGT RAIN  64  64 100 S10       29.70F
WINNSBORO      MOCLDY    63  63 100 S10       29.71S


...EASTERN AND COASTAL SOUTH CAROLINA...

CITY           SKY/WX    TMP DP  RH WIND       PRES   REMARKS
MYRTLE BEACH   MOCLDY    64  63  94 S14G20    29.77F FOG
N MYRTLE BCH   LGT RAIN  63  61  93 S8        29.76F
CONWAY         MOCLDY    64 N/A N/A S5        29.76S
MARION         MOCLDY    64  64 100 S6        29.75R
HARTSVILLE     CLOUDY    64  64 100 S9G20     29.73S
FLORENCE       CLOUDY    66  63  90 SW10      29.73F
DARLINGTON     CLOUDY    64  61  88 S12       29.73S
CHARLESTON APT CLOUDY    64  63  96 SW9       29.79S
MOUNT PLEASANT FAIR      64  63  94 SW8       29.79R
WALTERBORO     CLOUDY    64 N/A N/A S8        29.77F
BEAUFORT       CLOUDY    65  63  93 S5        29.78S


...EASTERN GEORGIA...

CITY           SKY/WX    TMP DP  RH WIND       PRES   REMARKS
AUGUSTA BUSH F CLOUDY    67  64  90 S7        29.73R
AUGUSTA DANIEL CLOUDY    67  64  90 S9        29.74R
THOMSON        CLOUDY    67  64  89 SW7       29.77R
WASHINGTON     CLOUDY    61 N/A N/A W17       29.75R
CLAXTON        DRIZZLE   64  64 100 CALM      29.78S
SYLVANIA       DRIZZLE   66  66 100 SW5       29.77S
STATESBORO     CLOUDY    66  66 100 S7        29.77S
SAVANNAH       CLOUDY    64  63  94 S8        29.78F


...SOUTHERN NORTH CAROLINA...

CITY           SKY/WX    TMP DP  RH WIND       PRES   REMARKS
CHARLOTTE      CLOUDY    59  57  93 S12       29.68R
MONROE         CLOUDY    65  62  90 SW9       29.68S
WADESBORO      CLOUDY    66  63  91 S7        29.70R
ROCKINGHAM     CLOUDY    64  63  94 S12G18    29.70S
RUTHERFORDTON  FOG       50  50 100 S7        29.69S VSB 3/4
ASHEVILLE      CLOUDY    54  51  90 S12       29.68R

$$



USA.gov is the U.S. government's official web portal to all federal, state and local government web resources and services.